Location: Unspecified
(0.0000°N, 0.0000°E)
Time: 00:05:45
(UTC+02:00)

Ariane H10 - Visible Passes

Search period start: 30 September 2016 00:00
Search period end: 10 October 2016 00:00
Orbit: 476 x 34795 km, 7.4° (Epoch: 28 September)

Date Brightness Start Highest point End Pass type
(mag) Time Alt. Az. Time Alt. Az. Time Alt. Az.
30 Sep 10.7 23:29:43 10° E 00:27:41 12° E 01:10:30 10° E visible
01 Oct 10.1 04:12:55 10° W 06:43:01 16° W 07:41:21 10° W visible
01 Oct 8.8 23:56:06 10° W 03:20:51 71° WNW 09:36:29 10° ESE visible
02 Oct 7.2 20:16:35 10° W 20:27:31 87° N 05:56:02 10° E visible
03 Oct 10.6 23:06:30 10° E 00:28:17 14° E 01:22:44 10° E visible
04 Oct 10.2 04:19:06 10° W 06:55:45 13° W 07:23:53 10° W visible
04 Oct 8.7 23:57:09 10° W 03:33:21 68° WNW 09:37:04 10° ESE visible
05 Oct 7.3 20:17:10 10° W 20:28:42 86° N 05:57:00 10° E visible
06 Oct 10.6 22:46:50 10° E 00:28:42 16° E 01:31:11 10° E visible
07 Oct 10.2 04:26:06 10° W 07:07:42 10° W 05:12:33 16° W visible
07 Oct 8.7 23:57:59 10° W 01:48:24 72° WNW 09:37:26 10° ESE visible
08 Oct 7.4 20:17:30 10° W 20:29:43 84° N 05:57:43 10° E visible
